Time,TemperatureF,DewpointF,PressureIn,WindDirection,WindDirectionDegrees,WindSpeedMPH,WindSpeedGustMPH,Humidity,HourlyPrecipIn,Conditions,Clouds,dailyrainin,SoftwareType,DateUTC
2014-10-22 00:24:00,46.0,42.0,30.16,North,355,2.0,5.0,85,0.00,,,0.00,,2014-10-22 04:24:00,
2014-10-22 00:53:00,46.0,41.0,30.16,NE,37,2.0,6.0,81,0.00,,,0.00,,2014-10-22 04:53:00,
2014-10-22 01:23:00,46.0,40.0,30.16,ENE,61,1.0,4.0,80,0.00,,,0.00,,2014-10-22 05:23:00,
2014-10-22 01:52:00,46.0,39.0,30.17,NNW,331,3.0,10.0,76,0.00,,,0.00,,2014-10-22 05:52:00,
2014-10-22 02:22:00,46.0,39.0,30.17,North,5,1.0,5.0,76,0.00,,,0.00,,2014-10-22 06:22:00,
2014-10-22 02:53:00,46.0,38.0,30.17,NNE,30,3.0,10.0,74,0.00,,,0.00,,2014-10-22 06:53:00,
2014-10-22 03:22:00,46.0,39.0,30.17,NNW,338,2.0,5.0,76,0.00,,,0.00,,2014-10-22 07:22:00,
2014-10-22 03:52:00,46.0,39.0,30.17,NNW,348,2.0,5.0,76,0.00,,,0.00,,2014-10-22 07:52:00,
2014-10-22 04:22:00,46.0,39.0,30.18,North,355,1.0,8.0,77,0.00,,,0.00,,2014-10-22 08:22:00,
2014-10-22 04:52:00,46.0,39.0,30.19,NW,319,2.0,5.0,77,0.00,,,0.00,,2014-10-22 08:52:00,
2014-10-22 05:22:00,45.0,39.0,30.19,NNW,327,3.0,6.0,80,0.00,,,0.00,,2014-10-22 09:22:00,
2014-10-22 05:53:00,45.0,40.0,30.19,NE,36,3.0,6.0,82,0.00,,,0.00,,2014-10-22 09:53:00,
2014-10-22 06:24:00,45.0,40.0,30.21,NW,313,2.0,5.0,83,0.00,,,0.00,,2014-10-22 10:24:00,
2014-10-22 06:53:00,45.0,40.0,30.22,NNW,329,2.0,6.0,84,0.00,,,0.00,,2014-10-22 10:53:00,
2014-10-22 07:22:00,44.0,39.0,30.23,North,360,1.0,4.0,84,0.00,,,0.00,,2014-10-22 11:22:00,
2014-10-22 07:52:00,44.0,39.0,30.24,North,5,1.0,5.0,84,0.00,,,0.00,,2014-10-22 11:52:00,
2014-10-22 08:22:00,44.0,40.0,30.25,North,9,2.0,9.0,85,0.00,,,0.00,,2014-10-22 12:22:00,
2014-10-22 08:52:00,44.0,40.0,30.26,NW,324,2.0,8.0,86,0.00,,,0.00,,2014-10-22 12:52:00,
2014-10-22 09:22:00,44.0,40.0,30.27,NNW,336,0.0,9.0,86,0.00,,,0.00,,2014-10-22 13:22:00,
2014-10-22 09:52:00,44.0,40.0,30.27,NW,304,2.0,6.0,86,0.00,,,0.00,,2014-10-22 13:52:00,
2014-10-22 10:22:00,46.0,41.0,30.28,NE,46,0.0,4.0,84,0.00,,,0.00,,2014-10-22 14:22:00,
2014-10-22 10:52:00,48.0,42.0,30.29,NNE,15,1.0,4.0,80,0.00,,,0.00,,2014-10-22 14:52:00,
2014-10-22 11:22:00,50.0,43.0,30.29,North,5,1.0,4.0,77,0.00,,,0.00,,2014-10-22 15:22:00,
2014-10-22 11:54:00,51.0,42.0,30.29,NW,321,1.0,10.0,72,0.00,,,0.00,,2014-10-22 15:54:00,
2014-10-22 12:24:00,51.0,42.0,30.29,NNW,329,3.0,10.0,72,0.00,,,0.00,,2014-10-22 16:24:00,
2014-10-22 12:53:00,53.0,43.0,30.30,North,355,4.0,11.0,69,0.00,,,0.00,,2014-10-22 16:53:00,
2014-10-22 13:23:00,52.0,43.0,30.29,NW,310,4.0,9.0,71,0.00,,,0.00,,2014-10-22 17:23:00,
2014-10-22 13:53:00,54.0,44.0,30.28,NNW,345,4.0,9.0,68,0.00,,,0.00,,2014-10-22 17:53:00,
2014-10-22 14:22:00,53.0,43.0,30.27,North,355,3.0,8.0,68,0.00,,,0.00,,2014-10-22 18:22:00,
2014-10-22 14:52:00,55.0,43.0,30.26,NNE,32,1.0,4.0,64,0.00,,,0.00,,2014-10-22 18:52:00,
2014-10-22 15:22:00,55.0,44.0,30.26,NNE,15,2.0,6.0,66,0.00,,,0.00,,2014-10-22 19:22:00,
2014-10-22 15:52:00,55.0,44.0,30.25,NW,318,1.0,5.0,67,0.00,,,0.00,,2014-10-22 19:52:00,
2014-10-22 16:22:00,55.0,44.0,30.26,WNW,298,1.0,8.0,67,0.00,,,0.00,,2014-10-22 20:22:00,
2014-10-22 16:52:00,54.0,44.0,30.26,NE,40,1.0,4.0,69,0.00,,,0.00,,2014-10-22 20:52:00,
2014-10-22 17:23:00,54.0,44.0,30.25,NNE,14,1.0,3.0,69,0.00,,,0.00,,2014-10-22 21:23:00,
2014-10-22 17:53:00,53.0,43.0,30.25,East,84,1.0,4.0,70,0.00,,,0.00,,2014-10-22 21:53:00,
2014-10-22 18:23:00,52.0,43.0,30.25,NNE,33,1.0,3.0,71,0.00,,,0.00,,2014-10-22 22:23:00,
2014-10-22 18:52:00,52.0,44.0,30.25,North,5,0.0,4.0,74,0.00,,,0.00,,2014-10-22 22:52:00,
2014-10-22 19:22:00,51.0,43.0,30.25,NE,37,0.0,1.0,75,0.00,,,0.00,,2014-10-22 23:22:00,
2014-10-22 19:52:00,50.0,43.0,30.25,North,355,0.0,0.0,76,0.00,,,0.00,,2014-10-22 23:52:00,
2014-10-22 20:23:00,49.0,42.0,30.26,NE,51,0.0,2.0,78,0.00,,,0.00,,2014-10-23 00:23:00,
2014-10-22 20:52:00,49.0,43.0,30.26,NE,51,0.0,0.0,79,0.00,,,0.00,,2014-10-23 00:52:00,
2014-10-22 21:22:00,49.0,43.0,30.26,East,79,0.0,0.0,79,0.00,,,0.00,,2014-10-23 01:22:00,
2014-10-22 21:52:00,49.0,43.0,30.26,NE,49,0.0,1.0,80,0.00,,,0.00,,2014-10-23 01:52:00,